Powrót do katalogu

USA 181 DEB

AktywnyLEO
NORAD 28541·DEBRIS·🇺🇸 United States

Wystrzelony Feb 3, 2005 z Cape Canaveral Space Force Station

Loading…

Następne Przeloty (najbliższe 24 godziny)

TLE

NieaktualneSource: Mike McCants

Epoka: Sep 1, 2026, 21:26 UTC

1 28541U 05004C   26244.89356515 0.00000000  00000-0  00000-0 0    02
2 28541  63.4002 231.7942 0561733   4.5002 355.4998 13.40702833    05

Śledź USA 181 DEB w czasie rzeczywistym z AllMySat

Download on the App Store